Regional Weather Roundup
Issued by NWS

Home | Current Version | Previous Version | Graphics & Text | Print | Product List | Glossary On
Versions: 1 2 3 4 5 6 7 8 9 10 11 12 13 14 15 16 17 18 19 20 21 22 23 24 25 26 27 28 29 30 31 32 33 34 35 36 37 38 39 40 41 42 43 44 45 46 47 48 49 50
000
ASUS43 KDTX 211510
RWRMI
MICHIGAN HOURLY REGIONAL WEATHER ROUNDUP
NATIONAL WEATHER SERVICE DETROIT/PONTIAC MI
1000 AM EST TUE FEB 21 2017

NOTE: "FAIR" INDICATES FEW OR NO CLOUDS BELOW 12,000 FEET WITH NO
SIGNIFICANT WEATHER AND/OR OBSTRUCTION TO VISIBILITY.

MIZ047>049-052>055-059>063-066>070-074>076-081>083-211600-
SOUTHEAST LOWER MICHIGAN

CITY           SKY/WX    TMP DP  RH WIND       PRES   REMARKS
ADRIAN         CLOUDY    42  37  82 CALM      29.97F
ALMA           LGT RAIN  46  43  91 SW8       29.91S
ANN ARBOR      CLOUDY    43  37  79 SW5       29.96F
BAD AXE        CLOUDY    43  36  75 S9        29.91F
CARO           LGT RAIN  46  42  86 S9        29.92S
DETROIT CITY   CLOUDY    45  36  70 CALM      29.97F
DETROIT        CLOUDY    43  36  76 S3        29.97F
FLINT          LGT RAIN  48  42  80 SW10      29.95S
GROSSE ILE     PTSUNNY   39  35  85 CALM      29.96F
HILLSDALE      RAIN      48  41  76 SW3       29.97R
HOWELL         CLOUDY    47  40  76 CALM      29.93F

CITY           SKY/WX    TMP DP  RH WIND       PRES   REMARKS
JACKSON        CLOUDY    52  42  69 W7        29.94F
LAMBERTVILLE   CLOUDY    45  39  78 CALM      29.97F
LANSING        CLOUDY    50  45  83 S8        29.93F
LAPEER         DRIZZLE   48  38  67 SW6       29.96R
MASON          LGT RAIN  50  45  83 S6        29.94F
MONROE         CLOUDY    42  38  86 CALM      29.95F
MT. CLEMENS    CLOUDY    42  55 100 VRB3      29.94F
PONTIAC        CLOUDY    44  35  70 W3        29.94F
PORT HOPE        N/A     46  36  68 S6        29.88F
PORT HURON     PTSUNNY   43  34  70 S5        29.97S
TRI CITIES     LGT RAIN  46  42  86 S12       29.91S
MIDLAND        RAIN      45  41  87 CALM      29.89S
TROY           PTSUNNY   44  32  63 CALM      29.97F
SAGINAW HB     LGT RAIN  46  41  81 S14       29.91R
$$
MIZ043>046-050>051-056>058-064>065-071>073-077>080-211600-
SOUTHWEST LOWER MICHIGAN

CITY           SKY/WX    TMP DP  RH WIND       PRES   REMARKS
BATTLE CREEK   LGT RAIN  50  48  93 S8        29.94F
BENTON HARBOR  RAIN      53  51  93 CALM      29.94F FOG
BIG RAPIDS     CLOUDY    49  47  93 SW8       29.88S FOG
COLDWATER      RAIN      49  44  81 SW6       29.98R
FREMONT        CLOUDY    49  49 100 SW12      29.90S FOG
HOLLAND        CLOUDY    54  51  90 S10       29.93R FOG
GRAND RAPIDS   RAIN      50  47  89 S12       29.91F FOG
IONIA          DRIZZLE   49  45  87 SW8       29.91F
KALAMAZOO      LGT RAIN  51  46  83 S8        29.95F
LUDINGTON      CLOUDY    43  43 100 W5        29.90R FOG
MARSHALL       CLOUDY    51  44  79 SW5       29.94S
MOUNT PLEASANT CLOUDY    47  44  91 SW6       29.88S FOG
MUSKEGON       CLOUDY    47  45  93 SW16      29.92R FOG
SOUTH HAVEN    LGT RAIN  53  52  97 S5        29.94S
$$
MIZ016>042-211600-
NORTHERN LOWER MICHIGAN

CITY           SKY/WX    TMP DP  RH WIND       PRES   REMARKS
ALPENA         CLOUDY    43  42  97 S6        29.85R
BEAVER ISLAND  FOG       40  40 100 SW13G18   29.83R VSB<1/4 WCI  33
BELLAIRE       CLOUDY    46  45  95 CALM      29.86R FOG
CADILLAC       FOG       46  46  97 W6        29.86R VSB 1/4
CHARLEVOIX     PTSUNNY   50  49  95 SW13      29.86R FOG
FRANKFORT      FOG       43  43  98 W5        29.88R VSB 1/2
GAYLORD        FOG       44  40  85 SW13      29.83S VSB 1/4
GRAYLING       CLOUDY    43  42  97 SW8       29.87S FOG
HARBOR SPRINGS CLOUDY    46  44  96 W5        29.83R FOG
HOUGHTON LAKE  CLOUDY    42  40  92 SW5       29.88R FOG
MANISTEE       CLOUDY    47  45  93 W12       29.89R FOG
OSCODA         MIX PCPN  40  37  90 SW9       29.86F WCI  34
PELLSTON       CLOUDY    48  44  86 SW7       29.82R FOG
ROGERS CITY    CLOUDY    44  41  90 SW7       29.83R
TRAVERSE CITY  CLOUDY    50  47  89 SW6       29.85R FOG
$$
MIZ007>008-015-211600-
EASTERN UPPER MICHIGAN

CITY           SKY/WX    TMP DP  RH WIND       PRES   REMARKS
KINROSS        FOG       39  39 100 SW6       29.81R VSB 1/4 WCI  35
MACKINAC ISLAN CLOUDY    44  44 100 W10G24    29.81R FOG
NEWBERRY       FOG       40  40  97 W7        29.79R VSB<1/4
S. S. MARIE    CLOUDY    36  34  92 E3        29.80R FOG
MUNISING         N/A     49  42  77 SW6       29.77S
$$
MIZ004>006-011>014-085-211600-
CENTRAL UPPER MICHIGAN

CITY           SKY/WX    TMP DP  RH WIND       PRES   REMARKS
MANISTIQUE     FOG       43  42  97 SW5       29.80R VSB 1/2
ESCANABA       SUNNY     48  43  82 W13       29.83R
MENOMINEE      SUNNY     49  43  80 W9        29.85R
SAWYER-GWINN   SUNNY     43  37  81 W7        29.79R
$$
MIZ001>003-009>011-084-211600-
WESTERN UPPER MICHIGAN

CITY           SKY/WX    TMP DP  RH WIND       PRES   REMARKS
IRON MOUNTAIN  SUNNY     45  36  70 W7        29.80R
HOUGHTON       MOSUNNY   37  32  82 W29G37    29.75R WCI  25
COPPER HARBOR    N/A     41  33  73 NW10G23   29.72R
IRONWOOD       MOSUNNY   41  35  79 SW8       29.82S
$$

ABBREVIATIONS USED IN REMARKS
   TC - TEMPERATURE IN CELSIUS
  WCI - WIND CHILL INDEX
   HX - HEAT INDEX
  VSB - VISIBILITY





USA.gov is the U.S. government's official web portal to all federal, state and local government web resources and services.